[[{"header":{"parameterUnit":"m.s-1","parameterCategory":1,"la1":30.2992,"la2":30.254,"lo1":-89.0895,"lo2":-89.0443,"dy":0.0025,"dx":0.0025,"nx":19,"ny":19,"refTime":"2026-05-05T09:00:00:Z","depth":0,"parameterNumber":2,"parameterNumberName":"U-component_of_WINDS"},"data":[0,0,0,-0.2178,-0.2179,-0.2248,-0.2248,-0.2333,-0.2334,0,0,0,0,0,0,0,0,0,0,0,-0.2155,-0.2155,-0.2178,-0.218,-0.2248,-0.2248,-0.2333,-0.2334,0,0,0,0,0,0,0,0,0,0,0,-0.2154,-0.2155,-0.2156,-0.218,-0.2248,-0.2248,-0.2333,-0.2283,0,0,0,0,0,0,0,0,0,0,-0.2217,-0.2192,-0.2155,-0.2156,-0.218,-0.2248,-0.2248,-0.228,-0.2286,-0.2301,0,-0.2312,0,-0.2325,-0.234,-0.234,0,0,0,-0.2182,-0.2187,-0.2208,-0.2156,-0.2181,-0.2248,-0.2218,-0.2283,-0.229,-0.2308,-0.2314,-0.2317,-0.2326,-0.234,-0.2341,-0.2419,-0.2419,0,0,-0.2178,-0.2165,-0.2204,-0.2212,-0.22,-0.2216,-0.222,-0.2287,-0.2293,-0.2314,-0.2319,-0.2327,-0.2341,-0.2341,-0.2419,-0.2419,0,0,0,-0.2166,-0.2163,-0.2182,-0.2209,-0.2221,-0.2217,-0.2222,-0.229,-0.2297,-0.232,-0.2328,-0.2341,-0.2342,-0.2418,-0.2419,-0.242,0,0,0,-0.2163,-0.2155,-0.2181,-0.2174,-0.222,-0.2256,-0.2223,-0.2292,-0.23,-0.2328,-0.2341,-0.2343,-0.2418,-0.2419,-0.2419,-0.2423,0,0,0,-0.2151,-0.2154,-0.2163,-0.2173,-0.2202,-0.2255,-0.2266,-0.2294,-0.2306,-0.234,-0.2343,-0.2418,-0.2418,-0.2419,-0.2422,-0.2441,0,0,0,-0.2135,-0.2161,-0.2163,-0.2196,-0.2201,-0.2255,-0.2266,-0.2307,-0.2336,-0.2342,-0.2418,-0.2419,-0.2419,-0.2421,-0.2441,-0.2456,-0.2461,0,0,-0.2162,-0.2164,-0.2185,-0.2188,-0.2239,-0.2245,-0.2297,-0.2335,-0.235,-0.2396,-0.2398,-0.2419,-0.2422,-0.2441,-0.249,-0.2494,0,0,0,-0.219,-0.2205,-0.2221,-0.2249,-0.2279,-0.2307,-0.2339,-0.2355,-0.2394,-0.237,-0.2431,-0.2433,-0.2445,-0.2453,-0.2456,-0.2469,-0.2421,-0.2421,-0.2421,-0.2209,-0.2228,-0.2265,-0.2293,-0.2319,-0.2354,-0.2379,-0.2405,-0.2414,-0.2429,-0.2443,-0.247,-0.2479,-0.2482,-0.2494,-0.2451,-0.2451,-0.2451,-0.2451,-0.2252,-0.2277,-0.2292,-0.2333,-0.2353,-0.2388,-0.2424,-0.243,-0.2467,-0.2461,-0.2472,-0.2465,-0.2485,-0.2497,-0.2452,-0.2452,-0.2451,-0.2451,-0.2451,-0.2268,-0.2283,-0.2302,-0.2346,-0.2378,-0.2406,-0.2441,-0.2458,-0.2474,-0.2485,-0.2503,-0.2503,-0.2507,-0.2492,-0.2493,-0.2493,-0.2493,-0.2493,-0.2493,-0.2277,-0.2298,-0.2326,-0.2363,-0.2384,-0.2415,-0.2452,-0.2475,-0.2504,-0.2514,-0.2514,-0.2524,-0.2483,-0.2474,-0.2494,-0.2494,-0.2494,-0.2494,-0.2494,-0.2315,-0.231,-0.2352,-0.2374,-0.2421,-0.2454,-0.2475,-0.252,-0.2541,-0.2559,-0.2567,-0.2534,-0.2538,-0.2535,-0.2528,-0.2561,-0.2561,-0.2561,-0.2561,-0.2329,-0.2333,-0.2382,-0.2417,-0.2453,-0.2478,-0.2528,-0.2559,-0.2589,-0.2604,-0.2602,-0.2592,-0.2589,-0.2595,-0.2592,-0.2585,-0.2632,-0.2632,-0.2633,-0.2355,-0.2363,-0.2402,-0.2432,-0.2471,-0.2504,-0.2553,-0.2594,-0.2628,-0.2636,-0.2617,-0.2614,-0.2599,-0.2593,-0.26,-0.2594,-0.2582,0,0]},{"header":{"parameterUnit":"m.s-1","parameterCategory":1,"la1":30.2992,"la2":30.254,"lo1":-89.0895,"lo2":-89.0443,"dy":0.0025,"dx":0.0025,"nx":19,"ny":19,"refTime":"2026-05-05T09:00:00:Z","depth":0,"parameterNumber":3,"parameterNumberName":"V-component_of_WINDS"},"data":[0,0,0,4.1407,4.1409,4.1496,4.1497,4.1622,4.1623,0,0,0,0,0,0,0,0,0,0,0,4.1392,4.1393,4.1407,4.1409,4.1496,4.1497,4.1622,4.1623,0,0,0,0,0,0,0,0,0,0,0,4.1391,4.1393,4.1394,4.1409,4.1496,4.1497,4.1621,4.155,0,0,0,0,0,0,0,0,0,0,4.1463,4.1461,4.1392,4.1394,4.141,4.1496,4.1497,4.1546,4.1555,4.1589,0,4.1625,0,4.1626,4.1633,4.1633,0,0,0,4.1401,4.1454,4.1467,4.1395,4.1411,4.1496,4.1455,4.1551,4.156,4.16,4.1626,4.1631,4.1628,4.1634,4.1634,4.1862,4.1864,0,0,4.1396,4.1414,4.1461,4.1474,4.1464,4.1452,4.1457,4.1556,4.1586,4.1627,4.1633,4.163,4.1635,4.1636,4.1861,4.1863,0,0,0,4.1388,4.1411,4.1421,4.1469,4.1484,4.1455,4.1461,4.1581,4.1583,4.1634,4.1632,4.1635,4.1637,4.1859,4.1862,4.1948,0,0,0,4.1384,4.1406,4.1419,4.1431,4.1483,4.1535,4.1484,4.1576,4.1587,4.1631,4.1635,4.1638,4.1858,4.1861,4.1943,4.1986,0,0,0,4.1382,4.1405,4.1422,4.1432,4.147,4.1532,4.154,4.1578,4.1586,4.1633,4.1639,4.1857,4.186,4.1937,4.1977,4.2047,0,0,0,4.1385,4.1501,4.1424,4.1551,4.147,4.1587,4.1539,4.1626,4.1677,4.1636,4.1858,4.1861,4.1936,4.1972,4.2042,4.2107,4.2137,0,0,4.1541,4.1521,4.1594,4.1527,4.1662,4.1572,4.1719,4.175,4.1739,4.1821,4.1826,4.1944,4.1977,4.2046,4.2305,4.2328,0,0,0,4.1649,4.1701,4.1733,4.1782,4.1808,4.1832,4.1838,4.1848,4.1917,4.1785,4.199,4.2009,4.2049,4.2079,4.2099,4.213,4.1877,4.1877,4.1877,4.1894,4.1871,4.1989,4.1975,4.2024,4.2026,4.2061,4.2075,4.2041,4.2089,4.2113,4.2272,4.2309,4.2324,4.2356,4.2149,4.2149,4.2149,4.215,4.2116,4.2184,4.2132,4.2227,4.22,4.2279,4.2285,4.2256,4.2323,4.2254,4.2288,4.2211,4.2351,4.2377,4.2156,4.2155,4.2154,4.2153,4.2153,4.2272,4.23,4.231,4.2374,4.2426,4.2408,4.2473,4.2448,4.2425,4.2459,4.2478,4.2476,4.2468,4.247,4.2471,4.2471,4.2472,4.2472,4.2473,4.2427,4.2435,4.2494,4.2527,4.2551,4.2581,4.2582,4.2605,4.2624,4.26,4.26,4.2557,4.237,4.2321,4.2481,4.248,4.2478,4.2478,4.2477,4.2655,4.2598,4.2689,4.2713,4.2746,4.2796,4.2763,4.2811,4.2827,4.2858,4.2808,4.2675,4.2652,4.2636,4.2594,4.2816,4.2816,4.2816,4.2816,4.2783,4.2769,4.2852,4.2892,4.2928,4.2905,4.3003,4.3003,4.2994,4.3001,4.2966,4.291,4.2895,4.2881,4.2859,4.282,4.3094,4.3094,4.3094,4.2919,4.2906,4.2996,4.2985,4.3007,4.3026,4.3115,4.3161,4.3139,4.3105,4.3004,4.2993,4.2903,4.2876,4.2837,4.2805,4.2733,0,0]}]]